Hourly Data Report for December 01, 2004

TORONTO CITY
ONTARIO

43°40'00.000" N
79°24'00.000" W
112.50 m
6158355
71508
XTO

Download Data

Hourly Data (December 2004)
Hourly Data Report for December 1, 2004
TIME
LST
Temp Definition
°C
Dew Point Definition
°C
Rel Hum Definition
%
Precip. Amount Definition
mm

Wind Dir Definition
10's deg

Wind Spd Definition
km/h
Visibility Definition
km
Stn Press Definition
kPa
Hmdx Definition


Wind Chill Definition


Weather Definition


00:00 5.1 4.2 94   LegendMM LegendMM LegendMM 99.47     LegendNANA
01:00 5.1 4.7 97   LegendMM LegendMM LegendMM 99.25     LegendNANA
02:00 5.5 5.1 97   LegendMM LegendMM LegendMM 98.98     LegendNANA
03:00 5.5 5.1 97   LegendMM LegendMM LegendMM 98.74     LegendNANA
04:00 5.4 5.1 98   LegendMM LegendMM LegendMM 98.48     LegendNANA
05:00 5.5 5.2 98   LegendMM LegendMM LegendMM 98.22     LegendNANA
06:00 5.5 5.2 98   LegendMM LegendMM LegendMM 97.98     LegendNANA
07:00 5.7 5.4 98   LegendMM LegendMM LegendMM 97.92     LegendNANA
08:00 5.9 5.7 99   LegendMM LegendMM LegendMM 97.89     LegendNANA
09:00 6.0 5.7 98   LegendMM LegendMM LegendMM 97.92     LegendNANA
10:00 2.7 2.0 95   LegendMM LegendMM LegendMM 98.13     LegendNANA
11:00 3.0 2.2 94   LegendMM LegendMM LegendMM 98.34     LegendNANA
12:00 4.2 2.3 87   LegendMM LegendMM LegendMM 98.55     LegendNANA
13:00 4.7 2.5 86   LegendMM LegendMM LegendMM 98.87     LegendNANA
14:00 5.5 1.4 75   LegendMM LegendMM LegendMM 99.13     LegendNANA
15:00 5.6 -0.5 65   LegendMM LegendMM LegendMM 99.33     LegendNANA
16:00 5.4 -0.3 67   LegendMM LegendMM LegendMM 99.49     LegendNANA
17:00 4.5 -2.0 63   LegendMM LegendMM LegendMM 99.65     LegendNANA
18:00 4.4 -1.6 65   LegendMM LegendMM LegendMM 99.75     LegendNANA
19:00 4.5 -1.0 67   LegendMM LegendMM LegendMM 99.81     LegendNANA
20:00 4.6 -0.9 67   LegendMM LegendMM LegendMM 99.85     LegendNANA
21:00 4.5 -0.7 69   LegendMM LegendMM LegendMM 99.86     LegendNANA
22:00 4.7 -0.3 70   LegendMM LegendMM LegendMM 99.89     LegendNANA
23:00 4.5 -0.5 70   LegendMM LegendMM LegendMM 99.91     LegendNANA

Notes on Data Quality.

Legend

  • E = Estimated
  • M = Missing
  • NA = Not Available*
  • [empty] = Indicates an unobserved value
Date modified: